Wind_Speed
22 25 25 24 23 21 19 19 18 19 19 18 17 17 17 15 14 14 14 14 14 13 14 13 13 12 10 8 7 8 9 10 12 14 16 17 17 18 18 19 18 18 18 18 17 16 15 15 16 16 17 17 17 18 18 18 18 18 17 17 18 19 20 21 21 21 20 19 19 19 18 18 17 17
23 25 27 26 25 22 20 20 20 20 20 20 19 19 19 18 17 16 15 14 13 12 12 12 12 12 11 9 8 8 10 12 14 16 17 18 19 19 19 19 19 19 19 20 20 20 19 18 17 17 17 17 18 18 19 19 18 18 18 17 18 19 20 21 22 22 22 22 21 21 21 21 21 20
23 26 28 28 26 24 22 21 21 22 22 22 22 21 20 19 18 17 16 15 13 11 10 11 11 11 11 11 11 11 12 14 16 17 18 19 19 19 19 20 20 21 21 20 21 22 21 20 19 18 17 17 18 18 18 19 19 19 19 19 19 19 20 20 21 22 23 23 23 23 24 24 24 24
24 26 28 29 27 25 24 22 22 22 23 23 22 21 20 18 17 17 17 16 14 11 10 9 9 10 11 12 12 12 12 13 14 15 15 16 17 18 19 19 20 20 20 20 20 21 21 21 20 19 18 18 18 17 17 18 18 19 19 19 19 20 20 20 20 20 21 22 22 23 24 25 26 26
24 26 28 28 27 26 26 25 23 23 22 21 21 20 19 17 16 16 17 17 15 12 10 9 8 9 10 11 10 11 11 11 11 12 13 14 16 17 19 19 19 19 19 19 19 19 20 20 19 19 19 19 18 17 17 18 18 19 19 19 19 20 21 21 20 19 19 20 21 23 24 25 26 27
25 26 27 28 28 27 27 26 25 23 21 21 21 20 19 18 17 16 16 17 16 13 11 10 9 8 9 10 10 11 12 12 12 14 15 16 16 17 18 19 19 19 20 20 19 18 19 19 19 19 19 18 18 18 20 20 20 20 20 20 21 21 21 21 22 22 22 22 23 24 24 25 26 26
26 27 27 28 29 28 27 26 24 23 22 22 21 21 20 20 19 18 18 17 17 15 13 12 11 10 10 11 11 12 14 14 15 17 17 17 17 17 18 19 19 19 19 19 18 17 17 18 19 20 20 20 21 22 23 23 22 22 21 21 21 22 22 22 23 24 24 25 25 24 24 25 25 25
28 28 27 28 29 29 29 28 25 23 23 23 22 21 21 21 19 18 18 18 16 16 16 16 14 12 12 13 14 14 15 15 16 18 19 18 18 18 19 20 20 19 18 17 17 18 18 19 19 20 21 22 23 25 25 25 24 23 23 23 23 23 23 24 23 23 23 23 24 24 24 24 25 26
28 28 28 28 28 29 30 29 27 25 24 23 22 22 22 21 19 18 18 17 16 17 18 18 16 14 14 14 15 16 16 17 18 19 19 19 19 19 20 21 22 21 20 18 18 18 19 20 20 20 20 21 23 25 25 25 24 23 23 23 24 25 25 25 25 24 24 24 25 26 26 25 25 26
29 29 29 28 27 28 29 29 27 25 23 22 22 22 22 21 19 18 16 16 16 17 18 18 18 17 16 16 16 17 17 18 19 20 19 19 18 19 21 23 23 23 22 21 19 20 21 22 23 23 24 24 24 25 25 25 24 24 25 25 27 27 27 27 27 27 28 28 28 28 28 28 27 27
30 29 29 29 28 27 27 27 25 24 23 23 22 22 20 19 18 17 16 17 18 18 18 19 20 19 18 18 18 18 18 19 19 19 19 20 19 19 21 24 25 23 23 22 21 21 23 25 26 27 27 26 26 25 25 26 26 27 28 29 29 28 28 29 30 31 32 32 33 32 30 29 29 28
30 29 28 30 29 28 27 26 25 24 23 23 23 21 20 19 19 18 17 18 20 20 20 22 22 21 20 20 20 19 19 19 18 17 18 20 21 21 22 24 24 24 23 22 22 22 23 25 26 27 27 26 25 26 26 27 27 28 29 29 29 30 30 31 31 31 30 31 31 31 29 29 29 29
31 30 28 29 30 28 27 26 26 25 24 23 22 21 21 21 20 19 18 19 20 21 23 24 24 23 23 22 22 21 21 19 18 17 17 19 21 22 24 25 24 23 23 23 24 25 25 27 27 26 25 23 23 23 24 24 25 25 25 26 26 26 26 25 24 23 23 23 23 24 25 26 27 28
30 30 29 29 29 27 26 27 27 25 25 24 22 22 23 23 22 21 20 21 22 23 25 26 25 25 25 24 23 23 22 20 18 17 19 21 22 23 25 26 24 23 24 26 28 28 27 27 26 22 20 19 19 19 19 20 20 19 18 18 18 18 18 18 18 19 19 19 20 21 23 24 26 26
30 30 31 30 29 27 26 27 27 27 26 24 23 22 24 24 23 22 22 23 25 25 26 27 26 26 27 26 25 25 24 21 19 20 21 23 24 24 25 26 26 24 25 28 31 31 27 24 22 20 18 18 16 15 16 16 16 16 15 16 16 17 18 19 19 20 21 22 22 22 23 24 25 26
31 31 32 31 29 28 27 27 28 28 27 25 24 23 23 24 23 23 23 24 25 25 26 26 26 27 28 29 28 26 23 21 20 21 22 23 23 24 25 27 27 26 28 32 34 32 26 22 22 21 19 19 18 17 16 15 15 15 15 17 18 19 21 22 23 24 24 25 26 26 26 26 27 28
33 33 32 31 29 29 29 27 28 30 27 24 23 23 23 24 24 22 22 22 22 23 24 26 27 28 29 29 28 24 20 19 20 21 21 22 23 25 25 27 28 28 30 31 30 28 23 21 23 24 22 21 21 20 18 18 19 19 19 19 20 21 23 25 26 27 29 31 32 31 32 32 32 33
34 33 32 29 28 28 28 27 27 28 25 22 21 21 22 23 21 20 20 20 21 22 24 26 28 28 27 28 26 21 18 19 21 21 22 23 24 25 26 27 29 29 28 25 25 26 24 22 24 27 25 24 24 23 22 22 22 22 22 22 22 24 26 28 31 33 35 35 32 31 31 33 33 34
34 33 31 28 26 26 26 26 26 26 22 19 19 19 20 20 19 19 19 20 21 23 24 26 28 28 27 26 24 21 20 21 22 22 23 24 25 26 27 28 28 26 22 19 23 27 25 23 25 26 25 24 24 25 25 26 26 27 27 28 29 31 33 33 33 31 29 26 24 23 25 27 29 31
34 31 28 25 25 26 25 25 25 23 20 18 18 18 17 18 19 19 19 20 21 23 25 27 27 27 26 25 23 22 22 22 22 21 22 23 24 25 26 26 24 22 20 20 23 26 25 23 23 23 24 26 28 30 31 32 32 30 29 28 29 29 28 26 24 21 20 19 20 21 23 25 27 29
33 29 25 25 26 24 22 23 23 21 19 18 18 17 18 19 21 21 22 23 24 25 26 26 25 24 23 23 22 21 21 20 20 21 22 23 23 23 23 23 22 23 24 24 24 24 23 22 23 27 30 32 34 35 34 30 26 23 21 20 20 20 19 19 18 18 18 19 20 22 24 26 28 29
30 26 26 27 26 21 18 20 21 21 19 18 17 17 19 21 23 24 25 26 26 25 24 23 22 22 22 22 22 22 21 21 22 23 23 22 21 20 21 22 24 25 26 25 23 23 24 25 28 33 36 37 35 32 26 20 17 17 17 18 19 18 18 18 18 18 19 20 22 25 27 28 29 31
28 25 27 26 21 16 17 20 21 22 20 19 17 17 19 22 23 23 24 25 23 21 21 21 21 21 22 23 24 24 24 24 23 22 21 19 18 19 20 22 24 26 27 26 25 26 28 30 33 33 33 34 32 26 21 18 17 18 20 22 21 20 19 20 20 21 22 23 25 28 30 31 32 33
27 25 25 21 16 16 18 20 22 22 20 19 17 17 19 22 23 23 22 21 19 19 21 23 23 24 24 25 25 25 24 22 20 18 17 17 18 20 22 24 26 28 29 28 26 27 28 30 31 27 24 26 29 26 22 22 21 21 23 25 24 23 23 23 23 23 25 27 29 32 33 34 34 35
24 21 20 18 16 17 18 19 20 20 19 18 17 18 20 22 22 21 18 17 19 22 24 25 26 26 26 25 23 22 20 18 16 16 16 17 19 22 25 28 29 28 27 26 24 23 24 23 23 22 19 22 27 27 26 26 24 23 24 25 25 26 26 26 26 26 27 29 32 33 35 35 36 37
19 18 18 16 16 15 16 17 17 16 16 17 17 19 20 19 18 17 17 19 21 23 22 22 20 19 19 19 18 16 15 14 14 14 15 17 19 23 26 27 25 22 23 23 19 17 18 18 18 20 21 23 26 27 28 28 26 25 25 26 27 28 28 28 28 28 29 30 32 34 36 37 39 39
17 17 16 14 14 14 15 15 15 15 15 16 17 18 17 15 14 15 17 18 18 16 14 12 10 9 10 11 11 10 10 10 11 13 14 16 19 24 25 22 19 17 18 17 13 11 14 17 18 19 21 24 26 28 29 30 29 28 28 28 30 30 29 28 28 28 30 31 34 36 38 39 40 40
17 16 14 13 13 13 14 14 13 13 13 14 15 14 13 13 13 13 13 12 10 9 8 7 7 7 7 7 8 10 11 13 15 16 17 18 22 25 23 19 16 15 14 12 10 10 13 17 18 18 20 23 26 28 29 31 31 30 30 32 32 31 29 27 28 30 32 34 37 38 39 40 40 40
18 16 15 14 14 13 13 12 11 11 11 11 12 11 11 10 10 9 8 7 7 7 6 7 7 6 6 8 10 12 14 16 18 20 21 22 24 24 21 17 14 13 11 10 10 11 13 16 18 20 21 22 24 27 29 30 30 29 31 34 34 32 29 28 29 32 36 38 40 41 42 43 43 43
19 18 16 15 13 12 11 10 10 10 10 11 10 10 9 7 7 7 6 5 6 7 7 8 9 9 10 11 12 15 16 18 20 22 23 25 24 21 18 16 14 12 10 10 11 13 15 17 19 20 21 22 23 25 26 26 28 30 32 33 33 33 31 30 31 35 38 41 44 45 46 47 47 47
19 17 15 14 13 11 11 11 11 11 11 11 11 9 7 6 6 7 6 7 8 8 8 10 11 12 12 14 15 16 17 19 21 22 22 22 21 18 15 15 16 15 13 13 14 16 17 17 17 18 20 22 22 22 22 24 28 32 32 31 31 32 32 32 34 38 40 44 47 48 49 49 49 50
19 17 15 14 13 12 12 12 11 11 12 12 11 9 8 7 7 8 9 9 9 9 10 12 13 13 14 14 15 15 17 19 20 19 17 17 16 14 14 15 17 18 18 19 19 17 15 13 14 16 18 20 21 21 23 26 29 31 32 32 31 31 32 34 38 40 42 44 47 49 50 51 51 51
18 16 16 15 13 13 13 12 11 12 12 12 11 11 10 9 9 10 11 11 11 11 13 14 13 13 14 13 13 14 17 19 18 16 14 13 13 13 14 15 17 18 20 22 21 18 15 14 14 15 16 18 20 22 25 28 29 29 30 31 31 32 34 36 39 41 41 41 45 49 51 52 52 50
17 16 15 14 13 13 13 13 12 12 11 10 10 11 12 12 12 12 13 13 12 13 14 14 13 13 13 13 14 17 19 20 17 14 11 11 12 13 15 16 17 18 20 20 19 19 19 18 16 16 17 19 20 21 21 25 28 29 29 30 31 33 36 38 39 40 40 40 42 45 49 53 52 48
16 16 15 14 14 14 14 14 13 11 10 10 10 11 13 15 15 14 14 13 14 14 14 14 14 14 15 16 18 20 21 19 16 12 9 10 12 14 14 16 18 18 18 18 18 19 20 19 19 21 22 22 22 21 20 22 27 29 30 31 33 35 37 38 39 40 41 44 44 43 47 52 53 48
17 16 15 14 14 14 14 13 12 11 11 11 11 12 14 16 16 16 15 14 14 14 14 14 15 16 16 18 19 20 19 17 13 9 9 11 13 14 15 16 17 16 16 17 18 19 19 19 20 23 25 25 26 26 24 24 25 27 30 32 34 36 37 38 40 41 44 48 48 45 45 49 51 50
18 16 15 14 14 14 13 12 11 11 12 13 14 15 15 16 16 16 15 14 14 14 14 15 15 16 17 18 19 19 16 12 9 9 10 12 14 15 16 16 15 15 16 17 17 17 18 20 21 22 24 25 26 28 28 27 25 25 28 31 34 36 37 38 41 44 46 48 48 47 45 46 49 50
18 16 15 15 15 14 12 11 11 11 11 12 13 13 13 14 14 14 13 12 12 12 13 14 15 16 17 17 17 15 12 9 9 10 12 14 15 15 14 15 15 16 17 18 17 17 18 20 20 20 22 24 26 27 29 29 29 28 28 29 31 34 35 37 41 45 47 48 48 47 45 44 47 48
17 16 16 16 15 13 11 10 10 10 10 11 10 10 10 11 11 10 9 8 9 10 12 14 16 17 16 14 12 11 9 9 10 11 13 14 14 13 13 14 15 17 18 18 17 17 18 18 18 19 20 22 23 25 26 28 31 31 29 27 28 30 33 35 39 42 45 46 46 46 45 44 45 46
18 18 18 16 15 13 13 12 12 13 13 13 12 12 12 11 10 9 8 8 9 12 14 16 16 14 13 10 9 9 9 9 11 13 14 13 11 11 12 14 15 17 18 18 18 18 18 17 17 19 20 20 21 22 24 27 30 32 31 28 27 28 30 32 35 39 41 42 42 44 44 45 46 46
18 19 18 16 15 14 15 15 15 15 14 13 12 12 11 9 8 8 8 10 12 14 15 15 13 12 11 10 9 9 9 10 12 13 12 11 10 11 13 14 15 17 18 18 17 17 17 17 18 19 19 19 20 21 24 27 31 32 31 29 28 29 31 32 32 34 36 37 37 40 41 41 42 43
17 17 16 16 15 16 17 15 13 12 12 11 11 10 9 8 9 10 11 12 13 15 16 14 12 11 9 9 9 10 10 11 12 12 11 11 12 13 13 13 16 18 17 17 17 16 16 18 20 20 19 18 19 22 26 29 30 29 29 30 30 31 33 34 33 32 33 33 33 35 38 39 39 38
15 15 15 16 17 18 17 14 12 11 11 10 10 9 8 9 11 12 13 14 15 16 15 13 11 9 8 9 10 10 10 11 12 12 12 12 12 13 13 14 17 17 15 15 15 15 16 19 20 19 18 17 19 24 27 28 27 26 26 29 32 33 36 38 37 34 33 32 31 30 30 30 31 32
16 16 16 16 18 18 16 14 12 11 11 10 9 9 9 11 12 13 13 14 15 15 13 10 9 9 9 10 10 10 10 11 12 13 14 13 12 12 13 15 16 15 13 13 14 15 16 19 19 17 17 18 22 27 28 25 23 24 26 28 31 35 38 41 42 40 37 35 34 32 27 23 21 22
17 16 15 16 16 16 15 13 12 12 11 10 10 9 10 11 12 13 14 15 15 15 13 11 10 9 10 11 12 11 11 12 13 14 14 14 13 12 13 15 15 12 11 13 15 15 17 19 18 15 16 19 24 28 28 24 22 23 26 28 31 35 38 40 43 44 42 39 38 36 31 25 20 19
Wind_Direction
213 209 205 206 209 211 215 218 219 222 226 229 232 232 232 237 241 244 250 252 251 250 249 245 243 245 248 239 231 244 256 269 287 298 302 303 305 307 310 310 310 310 310 310 307 300 291 285 281 280 281 282 284 286 286 287 285 283 281 279 280 281 282 283 282 282 280 279 279 279 280 281 281 281
214 214 210 210 214 216 219 223 224 226 228 229 232 234 237 242 245 249 255 254 247 243 240 241 245 246 245 247 247 248 255 269 283 291 293 293 296 299 301 302 303 305 306 307 306 305 300 292 285 281 280 282 284 285 285 284 283 282 281 279 278 276 277 279 280 281 281 280 280 279 279 279 279 279
215 215 214 214 217 219 223 227 230 233 234 235 238 241 243 246 248 252 254 249 241 234 232 236 246 250 251 258 266 268 272 278 282 284 285 287 290 292 294 297 299 301 303 304 304 303 302 298 293 286 283 283 284 284 283 282 283 284 284 284 282 279 277 276 277 278 279 280 280 279 279 279 278 276
218 218 218 219 219 219 223 226 231 235 238 241 243 246 248 248 250 252 250 248 244 236 233 236 241 249 254 260 267 275 280 282 282 282 286 290 291 290 291 294 296 296 298 300 300 299 297 296 293 289 287 287 287 286 286 284 284 285 286 287 287 286 284 282 280 279 278 279 280 281 281 280 278 276
224 222 222 223 221 220 223 227 231 234 237 240 242 246 247 244 246 249 248 251 251 241 235 240 243 246 251 256 264 279 289 290 289 292 297 300 300 297 296 294 293 291 291 293 294 292 290 288 287 287 287 288 290 292 293 291 288 286 286 286 286 287 287 286 285 283 280 279 279 280 280 280 280 277
229 226 226 226 224 223 225 229 232 235 237 240 243 246 248 249 254 254 248 251 255 250 245 250 255 253 253 257 267 282 290 292 297 304 307 305 303 305 305 301 297 293 289 289 288 287 287 286 286 287 287 287 289 293 294 293 290 287 285 284 285 285 284 283 282 282 281 280 280 279 279 278 279 279
233 230 228 229 229 229 231 233 235 238 241 245 248 251 254 257 260 255 248 248 254 259 262 263 265 264 262 265 274 284 289 291 295 302 306 305 302 305 310 309 304 298 292 290 289 288 288 287 287 287 287 286 287 289 290 289 288 286 284 284 283 283 282 280 279 279 279 280 280 280 279 277 276 276
236 234 232 231 231 233 236 238 239 241 245 248 251 252 254 257 257 253 248 250 255 264 270 270 270 268 267 273 282 290 293 293 293 296 301 304 302 304 309 311 308 303 297 294 293 294 295 293 289 286 285 285 286 288 288 286 285 284 284 284 284 282 282 281 279 277 277 278 279 279 279 277 273 270
239 238 237 235 233 234 238 238 240 244 247 249 251 250 251 253 254 251 249 252 257 263 269 273 273 270 272 281 293 299 301 299 295 294 298 302 304 306 309 311 310 305 299 295 294 294 296 297 295 292 290 289 288 287 285 284 282 282 282 284 285 284 283 281 280 278 278 278 277 277 277 277 273 268
242 241 240 239 235 235 236 237 240 245 248 251 252 249 248 249 250 250 251 254 257 261 269 276 278 275 278 288 297 302 303 301 297 295 297 299 301 304 307 308 308 306 302 300 297 294 294 296 296 296 296 294 290 285 283 282 281 281 282 283 283 282 282 281 281 281 280 278 277 275 272 272 272 269
244 242 240 240 238 236 236 238 241 246 250 255 253 248 246 248 248 250 252 254 257 261 270 277 279 279 284 291 298 303 304 301 299 297 296 297 298 299 303 306 307 306 305 303 299 296 295 294 294 293 294 292 288 285 283 283 283 283 283 283 283 282 280 280 281 280 280 278 276 275 271 268 268 268
245 242 240 240 239 238 240 243 246 249 254 255 250 245 248 251 248 248 252 255 257 260 267 274 276 280 286 292 298 303 304 303 303 300 296 296 300 302 303 304 305 305 305 303 300 298 295 293 292 292 292 290 288 287 286 286 285 284 283 282 281 280 279 280 280 280 279 278 276 274 272 269 268 267
244 243 241 239 236 236 239 244 248 251 254 251 246 246 251 252 250 251 254 255 255 258 266 274 278 282 286 290 296 299 299 302 306 304 300 301 304 305 303 303 304 303 302 302 302 301 300 300 298 296 295 294 292 290 289 289 288 286 285 283 280 278 277 277 277 278 278 279 277 275 273 272 271 269
243 243 243 240 236 234 237 242 246 250 252 248 244 246 251 252 254 256 256 256 257 262 270 276 279 281 283 287 292 294 295 300 304 305 305 305 304 303 302 302 303 301 302 306 306 304 304 304 302 300 299 299 297 293 290 288 287 285 283 280 277 275 274 274 274 276 277 276 275 274 272 271 271 269
244 245 244 242 238 235 237 242 247 250 250 247 244 248 252 254 255 257 259 261 263 266 272 276 277 277 279 285 290 291 292 296 298 300 302 303 302 302 301 302 303 304 308 311 310 308 306 304 302 302 303 302 299 295 288 285 284 282 280 279 277 275 275 275 276 276 276 275 273 271 270 269 269 268
246 246 242 240 239 237 237 241 246 248 248 246 246 250 257 258 259 263 266 268 268 270 273 275 275 276 279 285 289 291 290 291 294 296 298 298 299 299 299 300 303 307 311 311 309 307 304 301 302 305 306 304 301 295 288 284 282 279 278 278 279 279 280 281 281 280 279 277 274 271 268 268 268 268
246 245 241 238 239 237 237 241 244 245 247 248 248 254 263 265 266 269 270 270 270 272 273 274 275 277 282 288 291 291 288 289 293 296 298 298 297 296 296 298 301 306 310 308 305 302 301 303 306 307 307 306 303 298 293 290 286 283 280 279 278 279 279 279 280 280 281 282 280 274 269 268 269 270
247 245 241 238 240 239 239 242 243 245 248 248 250 260 267 267 268 268 267 270 273 274 275 275 277 280 284 288 290 288 284 286 290 295 298 298 296 295 296 297 300 303 306 304 302 302 303 305 304 304 305 307 305 304 303 300 295 289 284 280 278 277 277 278 279 281 284 285 284 277 272 271 273 274
248 244 239 238 242 241 240 242 245 246 245 247 257 266 267 265 265 265 269 276 280 280 279 278 278 280 284 286 285 283 283 286 289 292 294 294 294 295 295 296 298 301 301 300 302 305 304 302 301 302 304 303 301 301 302 299 294 288 284 282 281 281 282 283 284 285 284 283 281 278 276 276 276 277
246 241 238 239 239 236 237 243 248 246 243 252 268 272 266 263 264 267 278 286 287 286 285 282 280 280 282 283 284 286 288 290 293 293 292 291 293 294 294 295 296 297 296 295 298 302 304 304 303 301 300 298 297 298 300 299 298 296 293 290 287 286 286 286 284 282 279 278 279 280 281 280 280 279
241 237 238 238 233 229 237 248 248 241 243 262 274 268 261 264 268 275 285 290 290 290 287 283 281 280 282 285 289 292 294 294 294 294 293 293 293 291 291 293 294 294 296 297 299 302 305 307 305 301 301 302 303 305 307 308 309 308 303 297 294 293 291 285 279 276 275 278 282 284 285 285 286 286
233 233 237 234 227 227 241 248 240 234 246 268 273 262 260 265 271 278 285 288 290 290 286 281 280 282 285 289 292 292 290 290 291 292 291 290 289 288 290 293 296 296 297 300 304 305 305 306 305 306 307 308 308 311 315 319 319 313 307 304 302 300 297 290 281 276 277 282 288 290 291 292 294 295
223 231 236 229 223 231 243 242 235 236 253 270 269 262 264 270 277 284 286 287 288 285 281 279 280 282 285 286 287 286 286 287 288 285 282 283 287 292 295 297 299 300 300 302 306 308 308 308 309 311 313 312 312 315 321 323 319 315 314 315 312 307 305 300 290 282 282 287 292 294 294 298 302 303
218 227 231 225 225 235 237 237 237 244 259 269 265 263 270 277 284 288 286 285 285 282 282 283 285 287 288 286 286 286 286 287 284 278 277 284 293 299 301 301 301 301 301 304 307 308 309 309 310 312 314 313 312 316 322 321 318 318 321 323 321 317 315 310 301 292 288 288 291 293 297 301 305 305
213 221 225 225 230 233 233 238 244 252 262 263 260 266 275 282 285 286 284 284 286 286 288 291 292 292 291 289 289 289 288 286 282 279 285 294 299 302 304 303 302 301 301 304 307 308 309 311 312 314 315 311 311 315 319 319 317 318 322 324 324 323 320 315 308 301 295 292 293 296 300 303 305 304
209 219 222 225 228 230 234 241 247 252 254 255 261 271 277 279 280 282 286 288 289 290 294 297 298 298 298 298 297 293 289 288 287 290 295 299 301 305 306 304 303 303 304 306 309 311 312 313 315 316 316 312 311 313 316 317 318 318 318 321 323 323 321 316 310 305 301 300 300 302 303 304 304 303
208 211 210 214 220 226 234 240 243 247 251 258 267 271 271 274 279 286 290 290 291 297 304 311 320 330 331 325 315 302 299 305 307 306 304 301 305 310 309 304 301 305 309 311 311 311 312 313 313 314 313 312 310 311 313 316 318 318 317 320 322 322 320 316 311 308 307 307 306 306 306 305 304 304
201 197 198 206 213 218 226 231 237 248 257 263 265 264 268 278 284 287 288 289 296 308 319 334 357 10 359 334 314 305 309 315 314 311 309 308 310 314 312 304 301 308 315 318 317 312 310 310 309 309 309 309 309 309 312 314 316 316 318 321 322 321 318 315 312 311 311 311 310 310 308 306 306 307
193 193 197 203 205 210 217 226 240 257 262 257 256 262 273 281 282 284 287 294 307 316 325 335 345 348 330 312 306 307 309 310 309 309 311 312 313 314 311 305 305 314 323 325 321 314 308 306 307 307 306 305 306 308 310 312 312 314 319 321 321 320 317 313 313 313 313 314 314 311 308 307 308 309
191 195 198 200 203 210 220 237 255 260 251 247 254 267 275 277 278 284 293 300 306 310 313 318 321 319 310 305 305 307 307 305 305 306 308 310 312 314 313 309 310 317 327 329 322 315 310 309 310 310 308 307 307 308 310 310 310 314 319 321 321 319 316 314 313 315 316 317 314 311 310 309 309 308
194 196 198 202 208 218 234 251 257 249 243 249 260 266 271 275 276 280 286 289 293 297 299 304 311 311 306 304 307 308 307 304 303 303 304 307 311 315 318 318 318 321 326 327 323 321 318 316 314 315 317 317 315 312 312 312 312 315 319 321 321 319 317 317 317 318 319 317 314 312 312 310 309 307
195 198 202 209 216 228 244 252 249 241 242 251 258 259 265 271 270 271 275 279 283 287 292 299 305 305 304 306 310 312 310 308 304 301 302 308 314 320 324 325 324 324 323 323 326 330 329 322 316 317 321 322 320 318 318 315 315 317 320 321 322 321 320 321 320 320 320 318 316 315 313 311 310 308
198 202 208 215 223 234 242 242 236 234 241 250 256 260 265 267 264 264 267 271 275 280 285 292 295 296 301 307 310 312 315 314 308 302 305 314 321 324 325 325 325 325 323 324 330 337 336 327 319 314 316 317 318 320 321 319 317 320 322 323 324 322 322 322 321 320 320 319 315 314 314 314 314 311
204 209 214 220 228 233 232 228 225 230 241 252 259 264 267 266 263 260 261 264 267 271 277 284 287 289 297 307 313 319 323 320 313 307 309 318 322 322 323 323 323 325 326 327 331 335 334 331 326 317 314 313 313 315 320 323 324 325 326 326 325 324 323 323 322 320 320 319 317 315 315 316 316 313
210 214 218 223 227 225 222 220 222 231 245 258 265 267 266 264 261 259 258 261 263 267 274 282 285 289 298 307 316 322 323 319 311 306 309 316 319 319 320 322 324 327 330 330 331 333 333 333 331 327 324 323 322 322 328 333 333 330 327 326 325 324 323 322 320 320 321 323 323 319 316 315 315 313
216 219 222 223 219 216 216 218 225 238 252 263 269 266 259 255 255 255 256 259 262 266 270 274 279 287 299 309 315 319 318 312 304 299 305 313 316 316 319 323 326 329 330 329 330 333 333 333 333 331 331 331 329 328 332 338 336 331 327 326 325 324 322 320 320 322 324 325 325 322 317 314 313 312
218 219 222 218 210 208 213 221 232 244 255 264 272 271 262 252 246 244 245 252 259 263 264 269 279 292 304 310 313 314 311 303 292 293 304 310 312 314 319 324 327 328 328 327 329 332 333 333 334 334 334 333 330 327 330 336 339 336 331 327 324 323 322 321 322 324 325 325 324 322 318 313 310 311
219 216 213 207 202 206 218 231 241 249 258 265 269 268 258 247 240 238 241 249 256 260 266 277 290 301 307 308 308 306 298 285 283 295 306 311 313 316 320 323 325 326 325 325 327 331 332 334 336 338 337 334 328 324 325 331 336 338 335 329 325 324 324 324 325 325 326 326 324 321 318 313 310 312
214 209 203 200 202 212 226 237 240 245 254 259 258 255 253 252 253 253 253 256 260 267 279 291 300 306 307 304 297 288 279 278 290 303 312 315 316 318 319 321 323 325 324 324 326 330 334 337 340 342 338 331 323 319 319 323 328 332 333 332 333 332 329 328 328 327 328 328 325 321 318 315 313 314
201 200 200 202 208 218 229 238 243 248 256 261 265 269 273 273 272 271 270 274 278 286 296 303 305 304 299 288 276 270 275 289 303 311 314 314 311 312 316 320 323 324 324 323 325 329 336 342 344 341 336 327 319 318 320 323 327 330 332 335 340 341 337 333 331 331 332 331 327 323 321 319 319 321
199 200 203 205 212 224 236 242 247 251 258 265 272 275 275 272 272 276 282 285 290 300 307 307 299 290 282 272 267 275 291 302 307 310 310 304 301 309 316 320 323 324 323 322 324 330 338 342 340 336 330 322 320 325 328 329 329 330 330 333 339 343 342 339 337 338 340 337 331 326 324 323 322 323
204 204 205 209 219 232 239 241 243 249 258 266 270 270 268 270 278 286 290 291 297 309 311 300 282 273 272 272 280 293 303 306 308 309 304 297 301 312 317 319 323 325 324 324 325 329 334 338 339 336 330 326 330 335 334 330 327 326 327 331 336 340 344 344 344 345 348 347 341 334 330 329 327 326
208 207 208 216 227 234 234 233 239 251 260 264 267 270 272 276 283 289 292 295 303 312 309 292 273 269 274 283 294 302 305 307 309 306 298 297 306 314 315 316 321 324 325 326 327 327 332 340 345 346 342 340 342 341 337 332 328 325 327 332 337 341 345 347 348 349 352 354 351 343 335 330 326 325
207 209 212 219 225 229 229 231 239 250 256 261 266 270 274 279 285 291 296 300 307 312 304 280 261 262 273 284 295 302 305 310 311 305 300 302 307 308 308 313 320 325 329 331 328 328 337 346 351 353 351 347 346 345 342 336 330 330 332 336 340 344 347 349 350 352 354 357 357 353 344 332 319 312
207 208 210 214 218 222 224 229 237 246 253 258 261 267 276 283 288 293 297 300 306 310 301 276 257 260 270 280 292 301 305 310 311 307 302 303 302 299 304 313 320 327 334 333 329 332 343 350 354 354 350 346 346 348 346 339 332 335 339 341 344 348 349 350 352 355 356 359 1 1 356 347 331 314
Height
1560 1561 1562 1561 1561 1562 1562 1563 1563 1564 1565 1565 1565 1565 1565 1566 1566 1567 1567 1567 1567 1568 1567 1568 1568 1568 1568 1567 1567 1567 1567 1567 1567 1567 1566 1565 1565 1564 1564 1563 1563 1562 1562 1561 1561 1560 1560 1560 1559 1559 1558 1557 1557 1557 1556 1556 1556 1556 1555 1555 1555 1555 1555 1554 1554 1554 1554 1554 1554 1554 1554 1554 1554 1554
1559 1559 1560 1560 1560 1561 1561 1562 1562 1562 1563 1563 1563 1564 1564 1564 1565 1564 1565 1565 1565 1566 1566 1566 1566 1566 1566 1566 1566 1566 1566 1566 1565 1565 1564 1564 1563 1563 1562 1562 1561 1560 1560 1559 1559 1558 1558 1558 1557 1557 1556 1555 1555 1555 1554 1554 1553 1553 1553 1553 1553 1553 1552 1552 1552 1552 1552 1551 1551 1551 1551 1551 1551 1551
1557 1557 1558 1558 1558 1559 1560 1560 1561 1561 1561 1561 1562 1562 1563 1563 1563 1563 1563 1563 1563 1564 1564 1565 1565 1565 1565 1565 1565 1564 1564 1564 1564 1563 1563 1562 1561 1561 1560 1559 1559 1558 1558 1557 1556 1556 1555 1555 1555 1554 1554 1553 1553 1553 1552 1551 1551 1551 1550 1550 1550 1550 1550 1550 1549 1549 1549 1549 1549 1549 1548 1548 1548 1548
1555 1555 1555 1556 1557 1558 1558 1559 1559 1559 1560 1560 1561 1561 1562 1562 1562 1562 1562 1561 1562 1562 1563 1563 1563 1563 1563 1564 1564 1564 1563 1563 1562 1562 1561 1560 1560 1559 1558 1557 1557 1556 1555 1555 1554 1553 1553 1552 1552 1552 1551 1551 1551 1550 1550 1549 1549 1548 1548 1547 1547 1547 1547 1547 1547 1546 1546 1546 1545 1545 1545 1545 1545 1545
1552 1552 1553 1554 1555 1556 1557 1557 1557 1558 1559 1559 1560 1560 1561 1561 1561 1561 1561 1560 1560 1561 1561 1561 1562 1562 1561 1562 1562 1562 1562 1562 1561 1560 1560 1559 1558 1557 1556 1555 1555 1554 1554 1553 1552 1551 1550 1550 1550 1549 1549 1548 1548 1547 1547 1546 1546 1546 1545 1545 1544 1544 1544 1544 1544 1543 1543 1543 1543 1542 1542 1542 1541 1541
1549 1550 1550 1552 1553 1554 1555 1556 1556 1557 1557 1558 1558 1559 1559 1559 1560 1560 1560 1559 1559 1559 1560 1560 1560 1560 1559 1559 1560 1560 1559 1559 1558 1558 1557 1557 1556 1555 1554 1553 1552 1552 1551 1551 1550 1549 1548 1547 1547 1546 1546 1545 1545 1544 1544 1543 1543 1543 1542 1542 1542 1542 1541 1541 1540 1540 1540 1540 1540 1539 1539 1539 1538 1538
1546 1547 1548 1549 1551 1552 1553 1554 1555 1556 1556 1557 1557 1557 1557 1557 1558 1558 1558 1558 1558 1558 1558 1558 1558 1557 1557 1557 1557 1557 1556 1556 1555 1555 1555 1554 1553 1553 1552 1550 1549 1549 1549 1548 1547 1546 1546 1545 1544 1544 1543 1542 1542 1541 1541 1540 1539 1539 1539 1539 1539 1539 1538 1538 1537 1537 1536 1536 1536 1535 1535 1535 1535 1535
1544 1545 1546 1547 1549 1551 1551 1552 1553 1554 1555 1555 1556 1556 1556 1556 1556 1556 1556 1556 1556 1556 1556 1556 1556 1555 1555 1555 1554 1554 1554 1553 1553 1552 1552 1552 1551 1550 1549 1548 1547 1546 1546 1545 1545 1544 1543 1542 1542 1541 1540 1540 1539 1538 1537 1536 1536 1535 1535 1535 1535 1535 1535 1535 1534 1534 1533 1532 1532 1532 1531 1531 1531 1531
1542 1543 1544 1545 1547 1548 1549 1550 1551 1552 1553 1554 1554 1555 1554 1555 1555 1555 1555 1555 1555 1555 1554 1554 1554 1554 1553 1553 1552 1552 1551 1551 1550 1550 1550 1549 1548 1547 1546 1546 1545 1544 1543 1543 1542 1541 1540 1540 1539 1538 1538 1537 1536 1535 1534 1533 1532 1532 1531 1531 1531 1531 1531 1530 1530 1530 1529 1529 1528 1528 1527 1527 1527 1527
1540 1541 1542 1543 1545 1546 1547 1549 1550 1551 1552 1552 1553 1553 1553 1553 1553 1553 1553 1553 1553 1553 1553 1553 1553 1552 1552 1551 1551 1550 1549 1548 1547 1547 1546 1546 1545 1545 1543 1543 1542 1541 1540 1540 1539 1538 1537 1537 1536 1535 1534 1533 1532 1531 1530 1530 1529 1528 1528 1527 1527 1527 1526 1526 1526 1525 1525 1525 1524 1524 1523 1523 1523 1523
1537 1538 1539 1541 1542 1543 1545 1546 1548 1549 1549 1550 1550 1551 1551 1552 1552 1552 1552 1552 1552 1552 1552 1552 1551 1550 1550 1549 1548 1548 1547 1545 1544 1544 1543 1542 1542 1542 1541 1540 1539 1539 1538 1537 1536 1535 1534 1534 1533 1532 1531 1529 1528 1528 1527 1526 1525 1524 1523 1523 1523 1522 1522 1522 1521 1521 1520 1520 1519 1519 1519 1518 1518 1518
1535 1536 1537 1538 1539 1541 1543 1544 1545 1546 1547 1547 1548 1549 1549 1550 1550 1550 1550 1550 1550 1550 1550 1550 1549 1548 1548 1546 1545 1544 1543 1542 1541 1541 1540 1539 1538 1539 1538 1537 1537 1536 1535 1534 1533 1532 1531 1530 1529 1528 1526 1525 1525 1524 1523 1522 1521 1520 1519 1518 1518 1518 1517 1517 1517 1516 1516 1515 1514 1514 1514 1513 1513 1513
1532 1533 1534 1535 1537 1538 1540 1542 1543 1544 1544 1545 1545 1546 1547 1548 1548 1547 1548 1548 1548 1548 1547 1547 1547 1546 1545 1543 1542 1541 1540 1539 1538 1538 1537 1536 1536 1535 1534 1534 1534 1533 1532 1530 1529 1529 1527 1526 1524 1524 1523 1522 1521 1520 1518 1518 1516 1516 1515 1514 1513 1513 1513 1513 1513 1512 1511 1510 1510 1509 1509 1509 1508 1508
1529 1530 1531 1532 1534 1536 1538 1539 1540 1541 1542 1542 1543 1544 1545 1545 1545 1545 1545 1545 1545 1545 1544 1544 1544 1542 1541 1540 1540 1539 1538 1537 1536 1535 1534 1533 1533 1532 1530 1530 1531 1531 1529 1527 1525 1525 1524 1522 1520 1520 1519 1519 1518 1516 1515 1514 1513 1512 1512 1511 1510 1510 1510 1509 1509 1508 1507 1506 1505 1505 1504 1504 1504 1504
1525 1526 1528 1530 1532 1534 1536 1537 1537 1538 1539 1540 1541 1542 1542 1542 1543 1543 1543 1543 1542 1542 1541 1541 1540 1539 1537 1537 1537 1536 1535 1534 1533 1532 1531 1530 1529 1529 1527 1526 1527 1527 1525 1523 1521 1520 1520 1518 1516 1516 1516 1515 1514 1513 1512 1511 1510 1509 1509 1508 1507 1507 1506 1506 1505 1504 1503 1502 1501 1501 1500 1500 1500 1500
1522 1523 1525 1527 1529 1531 1533 1534 1535 1535 1536 1537 1538 1539 1540 1540 1540 1540 1540 1540 1540 1539 1538 1537 1536 1535 1534 1533 1533 1533 1532 1531 1530 1529 1528 1527 1526 1526 1525 1523 1523 1523 1522 1519 1516 1516 1516 1515 1513 1513 1513 1512 1510 1509 1508 1508 1506 1505 1505 1504 1504 1503 1502 1501 1501 1500 1499 1498 1498 1497 1496 1496 1495 1495
1519 1521 1522 1524 1527 1529 1530 1532 1532 1533 1534 1535 1536 1537 1537 1537 1537 1537 1537 1537 1537 1536 1535 1534 1533 1533 1532 1530 1530 1530 1529 1528 1527 1526 1525 1524 1523 1523 1522 1521 1520 1520 1519 1516 1513 1511 1512 1512 1509 1508 1508 1507 1506 1505 1505 1505 1503 1502 1501 1501 1500 1499 1498 1497 1496 1496 1495 1494 1493 1492 1492 1491 1490 1490
1516 1518 1520 1522 1524 1526 1527 1528 1529 1530 1532 1533 1534 1535 1534 1534 1535 1535 1535 1535 1535 1534 1533 1532 1530 1530 1529 1528 1527 1527 1526 1525 1524 1523 1522 1521 1521 1520 1519 1518 1517 1516 1516 1514 1510 1508 1508 1508 1505 1504 1504 1503 1502 1502 1502 1501 1500 1499 1498 1498 1497 1496 1495 1493 1492 1491 1490 1488 1487 1486 1486 1485 1484 1484
1513 1515 1517 1520 1521 1523 1524 1526 1527 1529 1530 1532 1532 1532 1532 1532 1533 1533 1534 1534 1533 1532 1531 1529 1528 1528 1527 1526 1525 1524 1524 1522 1521 1520 1519 1519 1518 1517 1516 1515 1514 1513 1513 1512 1508 1504 1504 1505 1503 1501 1501 1500 1499 1499 1499 1498 1497 1496 1495 1494 1493 1491 1490 1488 1487 1486 1484 1483 1482 1481 1480 1480 1479 1479
1509 1511 1515 1517 1518 1520 1522 1524 1526 1528 1529 1530 1530 1530 1530 1531 1531 1532 1532 1531 1530 1529 1528 1527 1526 1525 1524 1523 1523 1522 1521 1520 1519 1518 1517 1516 1516 1514 1512 1511 1510 1510 1510 1509 1506 1502 1502 1502 1501 1499 1498 1497 1496 1496 1495 1494 1493 1491 1490 1489 1487 1486 1484 1483 1481 1480 1479 1478 1477 1477 1476 1476 1475 1474
1506 1509 1512 1514 1515 1518 1521 1523 1524 1526 1527 1527 1527 1527 1528 1528 1529 1529 1530 1529 1527 1526 1525 1524 1523 1522 1522 1521 1520 1519 1518 1517 1516 1515 1514 1514 1513 1511 1509 1508 1507 1507 1506 1506 1503 1501 1499 1499 1498 1495 1494 1493 1491 1490 1489 1488 1487 1486 1485 1483 1482 1481 1479 1478 1477 1476 1475 1475 1474 1473 1473 1472 1471 1469
1505 1508 1509 1511 1513 1516 1519 1521 1522 1523 1524 1524 1524 1525 1525 1525 1526 1526 1527 1526 1525 1523 1522 1521 1521 1520 1519 1518 1517 1516 1516 1515 1514 1512 1511 1511 1509 1508 1507 1505 1504 1503 1503 1503 1501 1498 1497 1496 1495 1492 1489 1487 1486 1485 1485 1484 1483 1482 1480 1479 1478 1476 1475 1474 1473 1472 1471 1471 1470 1469 1468 1467 1466 1464
1502 1506 1507 1509 1512 1515 1517 1518 1519 1521 1521 1521 1521 1522 1522 1523 1523 1524 1524 1523 1522 1521 1520 1519 1519 1518 1517 1516 1515 1514 1513 1512 1511 1510 1509 1508 1507 1506 1505 1504 1502 1500 1499 1500 1498 1495 1493 1492 1491 1488 1485 1481 1480 1481 1481 1480 1479 1478 1476 1474 1473 1472 1471 1470 1469 1468 1468 1467 1466 1465 1463 1462 1460 1458
1500 1503 1505 1507 1510 1512 1514 1515 1517 1518 1518 1518 1519 1520 1520 1520 1521 1521 1520 1519 1519 1519 1518 1517 1516 1515 1514 1513 1512 1511 1510 1509 1508 1507 1507 1506 1505 1504 1503 1502 1500 1498 1496 1496 1495 1492 1490 1488 1487 1486 1484 1480 1477 1477 1477 1476 1475 1474 1473 1471 1469 1468 1467 1466 1465 1464 1463 1462 1461 1459 1458 1456 1455 1453
1498 1501 1503 1505 1508 1509 1511 1513 1514 1515 1515 1516 1517 1518 1518 1518 1518 1518 1517 1517 1517 1516 1515 1514 1513 1512 1511 1510 1509 1508 1507 1507 1506 1506 1505 1504 1503 1502 1501 1499 1497 1495 1493 1493 1492 1490 1488 1486 1484 1483 1482 1480 1476 1474 1473 1472 1472 1471 1470 1468 1467 1465 1464 1462 1460 1459 1458 1457 1455 1454 1452 1450 1449 1447
1496 1499 1501 1503 1505 1507 1509 1510 1511 1512 1513 1514 1515 1515 1516 1516 1515 1515 1515 1515 1514 1514 1513 1511 1510 1509 1508 1507 1507 1506 1506 1505 1505 1504 1504 1503 1502 1500 1499 1496 1494 1492 1490 1490 1490 1488 1486 1485 1483 1482 1480 1478 1475 1473 1471 1469 1468 1468 1466 1465 1464 1462 1460 1458 1456 1454 1453 1451 1450 1448 1446 1444 1443 1441
1495 1497 1499 1501 1503 1505 1506 1507 1509 1510 1511 1512 1512 1513 1513 1513 1513 1513 1513 1512 1512 1511 1510 1509 1508 1507 1506 1506 1506 1506 1505 1504 1503 1503 1502 1501 1500 1498 1496 1494 1492 1490 1488 1488 1487 1486 1485 1483 1482 1480 1478 1476 1473 1470 1468 1466 1465 1464 1462 1461 1460 1459 1457 1455 1452 1450 1449 1447 1444 1443 1440 1438 1436 1434
1494 1496 1498 1500 1501 1502 1504 1505 1507 1508 1509 1509 1510 1510 1511 1511 1511 1511 1511 1510 1510 1509 1508 1508 1507 1506 1506 1505 1505 1504 1503 1502 1501 1500 1499 1498 1497 1495 1493 1491 1490 1488 1487 1486 1485 1484 1483 1481 1479 1478 1477 1474 1471 1468 1466 1464 1462 1461 1459 1457 1456 1455 1453 1451 1449 1446 1444 1442 1439 1437 1434 1431 1429 1427
1493 1494 1496 1498 1499 1500 1502 1503 1505 1506 1506 1507 1508 1509 1509 1509 1509 1509 1509 1509 1508 1508 1507 1506 1506 1505 1505 1504 1503 1502 1501 1500 1499 1498 1497 1496 1494 1492 1490 1489 1488 1487 1486 1485 1484 1482 1481 1479 1477 1476 1474 1472 1470 1467 1464 1462 1459 1458 1457 1454 1452 1450 1449 1448 1445 1442 1440 1437 1434 1431 1428 1425 1423 1420
1491 1493 1494 1496 1497 1499 1500 1502 1503 1504 1505 1506 1506 1507 1507 1507 1507 1507 1507 1507 1507 1506 1505 1505 1504 1504 1504 1503 1502 1501 1499 1498 1497 1496 1494 1493 1491 1489 1488 1486 1485 1484 1484 1483 1482 1480 1479 1477 1475 1474 1472 1470 1468 1465 1463 1460 1457 1455 1454 1452 1448 1446 1444 1443 1441 1438 1435 1431 1428 1425 1422 1419 1417 1414
1490 1491 1492 1494 1496 1497 1498 1500 1501 1502 1503 1504 1505 1505 1505 1506 1506 1506 1505 1505 1505 1504 1504 1504 1503 1503 1502 1501 1500 1499 1497 1496 1495 1494 1492 1490 1489 1487 1485 1484 1483 1482 1481 1480 1479 1478 1476 1475 1473 1472 1469 1467 1465 1463 1461 1458 1455 1452 1450 1449 1446 1443 1440 1438 1436 1434 1431 1426 1421 1418 1415 1412 1410 1407
1488 1490 1491 1492 1494 1495 1497 1498 1499 1500 1501 1502 1503 1503 1504 1504 1504 1504 1504 1503 1503 1503 1502 1502 1501 1501 1501 1500 1498 1497 1496 1495 1494 1492 1490 1488 1487 1486 1484 1482 1481 1479 1478 1477 1476 1475 1474 1472 1471 1469 1467 1465 1462 1460 1458 1455 1453 1450 1447 1445 1442 1440 1437 1435 1432 1428 1426 1422 1415 1410 1407 1404 1401 1398
1487 1488 1489 1491 1492 1494 1495 1496 1497 1499 1500 1501 1501 1501 1502 1502 1502 1502 1502 1502 1502 1501 1501 1500 1500 1499 1499 1498 1497 1496 1494 1493 1491 1490 1488 1487 1486 1484 1483 1481 1480 1478 1476 1474 1473 1472 1471 1470 1469 1467 1465 1463 1461 1458 1456 1452 1449 1447 1444 1441 1438 1435 1433 1431 1428 1424 1421 1418 1412 1404 1399 1395 1392 1389
1486 1487 1488 1489 1491 1492 1493 1494 1496 1497 1498 1499 1499 1500 1500 1500 1500 1500 1500 1500 1500 1499 1499 1499 1498 1497 1497 1496 1495 1493 1492 1490 1489 1488 1487 1486 1485 1483 1482 1480 1478 1477 1475 1473 1472 1470 1469 1468 1466 1464 1463 1460 1458 1456 1454 1450 1446 1443 1440 1438 1435 1432 1429 1426 1423 1420 1417 1414 1408 1401 1393 1387 1385 1383
1485 1485 1486 1488 1489 1490 1491 1493 1494 1496 1496 1497 1497 1497 1498 1498 1498 1498 1498 1498 1498 1497 1497 1497 1497 1496 1495 1494 1493 1491 1490 1488 1487 1486 1485 1485 1483 1482 1480 1478 1477 1475 1474 1472 1471 1469 1467 1465 1463 1461 1459 1457 1454 1452 1450 1448 1444 1440 1437 1434 1432 1429 1425 1422 1419 1415 1411 1407 1403 1396 1388 1380 1376 1375
1483 1484 1485 1486 1487 1488 1490 1491 1493 1494 1494 1494 1495 1495 1495 1495 1495 1496 1496 1496 1495 1495 1495 1495 1495 1495 1494 1493 1491 1489 1488 1486 1485 1484 1483 1483 1481 1480 1479 1477 1476 1474 1473 1471 1469 1468 1466 1464 1462 1459 1456 1454 1451 1448 1446 1445 1443 1439 1435 1431 1428 1425 1422 1418 1414 1410 1406 1401 1396 1391 1384 1376 1370 1367
1481 1482 1483 1484 1485 1487 1488 1489 1491 1491 1491 1492 1492 1492 1492 1492 1493 1493 1493 1493 1493 1493 1494 1494 1494 1493 1492 1491 1489 1487 1486 1484 1483 1483 1482 1481 1480 1478 1477 1476 1474 1473 1471 1470 1468 1467 1464 1462 1461 1458 1455 1452 1450 1447 1444 1442 1441 1439 1435 1430 1426 1422 1419 1414 1409 1405 1401 1396 1391 1386 1380 1373 1365 1361
1479 1480 1481 1482 1484 1485 1486 1487 1488 1489 1489 1489 1489 1489 1490 1490 1490 1491 1491 1491 1492 1492 1492 1492 1492 1491 1490 1488 1487 1485 1484 1483 1482 1481 1480 1479 1478 1477 1476 1474 1473 1472 1470 1468 1467 1465 1463 1461 1459 1457 1455 1452 1449 1446 1443 1439 1437 1436 1435 1430 1425 1421 1417 1411 1405 1400 1396 1391 1386 1381 1376 1369 1362 1356
1477 1478 1479 1481 1482 1483 1484 1485 1486 1487 1487 1487 1487 1487 1488 1488 1489 1489 1489 1490 1490 1490 1490 1490 1489 1488 1487 1486 1485 1483 1482 1481 1480 1479 1478 1477 1476 1475 1474 1473 1471 1470 1468 1466 1465 1463 1462 1460 1458 1455 1453 1451 1448 1445 1442 1439 1436 1434 1433 1430 1425 1420 1415 1410 1404 1398 1392 1387 1381 1374 1369 1364 1357 1352
1475 1477 1478 1480 1481 1482 1483 1484 1484 1485 1485 1485 1486 1486 1486 1486 1487 1487 1487 1488 1488 1488 1488 1488 1487 1486 1485 1484 1483 1482 1481 1480 1479 1478 1477 1476 1475 1474 1473 1472 1470 1468 1466 1464 1463 1461 1460 1458 1456 1454 1452 1449 1447 1444 1441 1438 1435 1431 1429 1427 1424 1419 1415 1410 1404 1397 1391 1384 1378 1371 1364 1357 1350 1345
1474 1475 1477 1478 1479 1480 1481 1482 1483 1483 1484 1484 1484 1484 1484 1485 1485 1485 1486 1486 1486 1486 1486 1485 1484 1484 1483 1482 1481 1480 1480 1479 1478 1477 1476 1475 1474 1473 1472 1470 1468 1467 1465 1463 1461 1460 1458 1456 1455 1452 1450 1447 1445 1442 1439 1436 1432 1429 1426 1424 1422 1419 1415 1410 1405 1398 1391 1384 1377 1370 1362 1355 1348 1341
1472 1474 1475 1477 1478 1479 1480 1480 1481 1482 1482 1482 1482 1483 1483 1483 1483 1484 1484 1484 1484 1484 1483 1483 1482 1481 1481 1480 1480 1479 1478 1477 1476 1475 1474 1473 1472 1471 1470 1468 1467 1465 1463 1461 1460 1458 1457 1455 1453 1450 1448 1445 1443 1440 1437 1434 1430 1427 1424 1421 1419 1416 1413 1409 1404 1398 1391 1385 1378 1370 1362 1354 1347 1340
1471 1473 1474 1475 1477 1477 1478 1478 1479 1480 1480 1480 1480 1481 1481 1481 1482 1482 1482 1482 1482 1481 1481 1481 1480 1480 1479 1479 1478 1477 1477 1476 1475 1473 1473 1472 1471 1469 1468 1467 1465 1463 1462 1460 1459 1457 1455 1453 1450 1448 1446 1444 1442 1439 1435 1432 1429 1426 1423 1419 1416 1412 1409 1405 1401 1396 1391 1385 1379 1372 1365 1357 1350 1343
1470 1471 1473 1474 1475 1475 1476 1477 1477 1478 1478 1478 1478 1479 1479 1479 1479 1479 1479 1479 1479 1479 1479 1478 1478 1478 1477 1477 1477 1476 1475 1474 1473 1472 1471 1470 1469 1468 1467 1465 1463 1462 1461 1459 1457 1455 1454 1452 1449 1447 1445 1442 1440 1438 1434 1430 1428 1425 1421 1418 1414 1409 1405 1400 1395 1391 1387 1382 1376 1370 1364 1358 1352 1346
1468 1470 1471 1472 1473 1474 1474 1475 1475 1476 1476 1476 1477 1477 1477 1477 1477 1477 1477 1477 1477 1477 1477 1476 1476 1476 1476 1475 1475 1474 1473 1473 1472 1471 1469 1468 1467 1466 1465 1464 1462 1461 1459 1458 1456 1454 1452 1450 1448 1446 1444 1442 1439 1436 1433 1430 1427 1424 1420 1417 1413 1408 1403 1398 1392 1386 1381 1377 1373 1367 1360 1355 1350 1345